Regional Weather Roundup
Issued by NWS Grand Forks, ND

Home | Current Version | Previous Version | Text Only | Print | Product List | Glossary On
Versions: 1 2 3 4 5 6 7 8 9 10 11 12 13 14 15 16 17 18 19 20 21 22 23 24 25 26 27 28 29 30 31 32 33 34 35 36 37 38 39 40 41 42 43 44 45 46 47 48 49 50
000
ASUS43 KFGF 232231
RWRFGF
PRAIRIE TO PINES  WEATHER ROUNDUP
NATIONAL WEATHER SERVICE EASTERN NORTH DAKOTA/GRAND FORKS ND
500 PM CDT WED AUG 23 2017

 **SATELLITE DATA USED TO AUGMENT SKY COVER AT AUTOMATED STATIONS**
 *****  WEATHER ACROSS EASTERN NORTH DAKOTA  *****

CITY           SKY/WX    TMP DP  RH WIND       PRES   REMARKS
GRAND FORKS    PTSUNNY   75  50  41 NE17G23   30.00S
GRAND FRKS AFB CLOUDY    74  49  41 E6        30.00S
DEVILS LAKE    PTSUNNY   74  53  48 E8        29.98F
FARGO          FAIR      78  50  37 SE5       29.99F
WAHPETON ARPT  FAIR      73  52  46 S6        30.00F
$$

 ***** WEATHER ACROSS CENTRAL AND WESTERN NORTH DAKOTA  *****

CITY           SKY/WX    TMP DP  RH WIND       PRES   REMARKS
BISMARCK       FAIR      83  54  36 SE8       29.96F
MINOT          FAIR      86  45  23 W7G18     29.90F
JAMESTOWN      FAIR      79  53  40 S10       29.97F
MINOT AFB      FAIR      86  51  30 NE15      29.89F
GARRISON         N/A     83  53  35 SE8       29.94F
WILLISTON      FAIR      91  45  20 S5        29.92F
DICKINSON      FAIR      86  48  26 S5        29.95F
HETTINGER      FAIR      86  48  26 VRB5      29.98F
$$

 *****  OTHER AIRPORT OBSERVATIONS IN OUR AREA  *****

CITY           SKY/WX    TMP DP  RH WIND       PRES   REMARKS
WALHALLA       LGT RAIN  57  57 100 E13G18    30.06F
GRAFTON AIRPOR MOCLDY    64  54  68 NE21G28   30.07R
VALLEY CITY AR   N/A     77  54  44 S9        30.00F
CANDO          MOCLDY    73  54  49 E10       30.00S
CAVALIER APRT  LGT RAIN  57  55  94 E15       30.06S
GWINNER        CLEAR     77  57  50 CALM      29.98F
SHEYENNE NWR     N/A     78  52  40 SE7       29.95S
ROLLA          FAIR      70  55  60 E18G24    30.01R
 ***** THE ABOVE OBSERVATIONS ARE NON NWS ARE NOT QUALITY
       CONTROLLED AND MAY MIS-REPORT RAIN FOR SNOW...
$$

  *****  WEATHER ACROSS NORTHERN MINNESOTA  *****

CITY           SKY/WX    TMP DP  RH WIND       PRES   REMARKS
FLAG ISLAND    CLOUDY    57  48  72 W3        30.08S
WARROAD        DRIZZLE   54  50  87 CALM      30.11S
ROSEAU         RAIN      55  50  82 CALM      30.10F
HALLOCK        RAIN      57  54  88 E10       30.09S
THF RVR FALLS  PTSUNNY   63  51  65 E17       30.07R
BAUDETTE       LGT RAIN  58  53  84 NW3       30.10S
WASKISH        LGT RAIN  55  55 100 CALM      30.10S
CROOKSTON      FAIR      70  48  46 E15       30.03R
STEPHEN NDAWN    N/A     63  52  67 NE15        N/A
GREENBUSH NDAW   N/A     57  54  88 NE6         N/A
$$
  *****  WEATHER ACROSS CENTRAL AND WEST MINNESOTA  *****

CITY           SKY/WX    TMP DP  RH WIND       PRES   REMARKS
FOSSTON        FAIR      64  48  55 NE12      30.05S
BEMIDJI        FAIR      59  52  77 NE12      30.07S
PARK RAPIDS    CLOUDY    73  48  41 N3        30.04F
ELBOW LAKE     FAIR      73  52  47 SE5       30.02F
WADENA         FAIR      73  48  40 NW3       30.04S
DETROIT LAKES  FAIR      73  46  38 SE6       30.04F
MOORHEAD       FAIR      77  48  36 SE7       30.00F
FERGUS FALLS   FAIR      73  48  40 SE7       30.01S
MORRIS MN      FAIR      77  54  44 SE7       30.01F
STAPLES        FAIR      73  45  35 CALM      30.04S
$$
  *****  WEATHER ELSEWHERE ACROSS MINNESOTA  *****

CITY           SKY/WX    TMP DP  RH WIND       PRES   REMARKS
DULUTH         FAIR      65  48  54 NW12      30.05F
INTRNTL FALLS  PTSUNNY   63  45  51 NE5       30.07F
ELY            FAIR      63  43  48 CALM      30.06S
CLOQUET        FAIR      66  45  45 NW3       30.05F
WHEATON        FAIR      75  52  43 S8        30.02S
BRAINERD       FAIR      71  51  49 VRB5      30.05F
HIBBING        FAIR      63  44  50 N6        30.06S
ALEXANDRIA     FAIR      73  47  39 CALM      30.05F
SAINT CLOUD    FAIR      75  50  41 N3        30.04F
MINNEAPOLIS    FAIR      76  50  40 N9        30.04F
$$

  *****  WEATHER ACROSS SOUTH DAKOTA  *****

CITY           SKY/WX    TMP DP  RH WIND       PRES   REMARKS
SIOUX FALLS    PTSUNNY   79  61  53 S14       30.02F
BROOKINGS      FAIR      74  57  55 SE12      30.02F
WATERTOWN      FAIR      75  56  51 SE10      30.01F
HURON          PTSUNNY   79  59  50 S15       29.95F
SISSETON         N/A     77  58  51 SE9       29.99F
ABERDEEN       FAIR      81  56  42 SE12      29.96F
MITCHELL       FAIR      81  61  50 S16       29.96F
PIERRE         FAIR      85  60  42 E8        29.89F
MOBRIDGE       FAIR      83  62  49 E14G25    29.92F
RAPID CITY     FAIR      89  48  24 N6        29.96F
$$

  *****  SOME WEATHER IN NEARBY STATES *****

CITY           SKY/WX    TMP DP  RH WIND       PRES   REMARKS
GLASGOW MT     FAIR      92  38  15 MISG      29.90F
GREAT FALLS MT FAIR      91  33  12 VRB5      29.94F
CHEYENNE WY    FAIR      80  43  26 S16       30.18F
SCOTTSBLUFF NE FAIR      90  57  32 E9        30.00F
OMAHA NE       FAIR      80  56  43 S10       30.06F
DES MOINES IA  FAIR      80  48  32 VRB3      30.06F
DAVENPORT IA   FAIR      75  51  43 NW10      30.06F
CHICAGO IL     FAIR      78  48  34 N13       30.00F
EAU CLAIRE WI  FAIR      72  48  42 N9        30.04F
LA CROSSE WI   FAIR      77  52  41 NW12      30.03F
$$

  *****  SOME NATIONAL WEATHER *****

CITY           SKY/WX    TMP DP  RH WIND       PRES   REMARKS
LA GUARDIA NY  PTSUNNY   81  56  42 NW15      29.82S
RALEIGH NC     LGT RAIN  81  77  88 W3        29.83R
ATLANTA GA     FAIR      87  66  49 NW8       29.90F
NEW ORLEANS LA PTSUNNY   92  72  51 VRB7      29.87F HX  99
OKLAHOMA CITY  FAIR      84  62  47 E7        30.01F
ALBUQUERQUE NM PTSUNNY   84  53  34 W6        30.14F
SALT LAKE CITY PTSUNNY   85  46  25 E3        30.07F
LOS ANGELES CA FAIR      72  62  71 W15       29.93F
BOISE ID       FAIR      90  46  21 W12       29.96F
SEATTLE WA     PTSUNNY   70  58  65 VRB6      30.00F
$$

*** WEATHER ACROSS MANITOBA...SASKATCHEWAN AND ONTARIO ***
                ***ONTARIO***

CITY           SKY/WX    TMP DP  RH WIND       PRES   REMARKS
GERALDTON      PTSUNNY   57  41  54 N7        30.00R
THUNDER BAY    PTSUNNY   64  32  29 N9        30.03S
SIOUX LOOKOUT  PTSUNNY   63  39  42 NW7       30.07F
TORONTO        MOSUNNY   70  48  46 NW20G25   29.88R
BIG TROUT LK   SUNNY     61  39  44 N9        30.07S
PICKLE LAKE    MOSUNNY   61  32  33 N7        30.06S
DRYDEN         SUNNY     61  37  41 VRB2      30.08F
KENORA         PTSUNNY   61  45  55 N5        30.10R
$$
                *** MANITOBA***

CITY           SKY/WX    TMP DP  RH WIND       PRES   REMARKS
BRANDON        PTSUNNY   63  52  67 E24       30.06R
DAUPHIN        PTSUNNY   66  50  55 E14       30.08S
ISLAND LAKE    MOSUNNY   63  36  36 NW6       30.13S
PILOT MOUND      N/A     63  50  63 E20G26      N/A
THE PAS        CLOUDY    70  50  49 SE12      30.10S
THOMPSON       PTSUNNY   66  36  32 VRB2      30.14F
WINNIPEG       PTSUNNY   59  52  77 E7        30.11R
LYNN LAKE      MOSUNNY   68  48  49 SE7       30.11F
CHURCHILL      MOSUNNY   59  39  47 NE7       30.13S
GILLAM         SUNNY     63  39  42 W6        30.13F
$$
                ***SASKATCHEWAN***

CITY           SKY/WX    TMP DP  RH WIND       PRES   REMARKS
ESTEVAN        MOSUNNY   86  46  25 NE13      29.93S
KINDERSLEY     MOSUNNY   82  45  26 E16G29    29.92F
LLOYDMINSTER   PTSUNNY   75  55  50 SE18G24   29.94F
PRINCE ALBERT  MOSUNNY   75  48  38 E13       30.03F
REGINA         MOSUNNY   82  48  30 NE6       29.96S
YORKTON        SUNNY     70  52  52 E16G22    30.04S
N. BATTLEFORD  SUNNY     79  52  38 E15G22    29.98F
LA RONGE       MOSUNNY   73  48  40 SE9       30.03F
SASKATOON      PTSUNNY   77  50  38 E12       29.99F
SWIFT CURRENT  SUNNY     84  45  24 E15G21    29.94F
$$
NOTE: THESE ARE AUTOMATED STATIONS WITH LIMITED QUALITY CONTROL
      "FAIR" INDICATES FEW OR NO CLOUDS BELOW 12,000 FEET WITH NO
      SIGNIFICANT WEATHER AND/OR OBSTRUCTIONS TO VISIBILITY.
      SKY/WX - SKY CONDITION AND SIGNIFICANT WEATHER.
      TMP - AIR TEMPERATURE.    DP   - DEWPOINT TEMPERATURE.
      RH  - RELATIVE HUMIDITY.  PRES - PRESSURE.
      HX  - HEAT INDEX.         WCI  - WIND CHILL INDEX.
$



USA.gov is the U.S. government's official web portal to all federal, state and local government web resources and services.